Weather History for KISQ - September, 2013

Change the Weather History Date:

Sunday, September 22, 2013

  Actual Average Record
Temperature  
Mean Temperature 44 °F -  
Max Temperature 53 °F 63 °F 74 °F (1958)
Min Temperature 35 °F 43 °F 32 °F (1976)
Degree Days  
Heating Degree Days 21    
Moisture  
Dew Point 38 °F    
Average Humidity 80    
Maximum Humidity 97    
Minimum Humidity 55    
Precipitation  
Precipitation 0.00 in - - ()
Sea Level Pressure  
Sea Level Pressure 30.05 in    
Wind  
Wind Speed 5 mph (NNW)    
Max Wind Speed 10 mph    
Max Gust Speed -    
Visibility 10 miles    
Events      
Averages and records for this station are not official NWS values.
T = Trace of Precipitation, MM = Missing Value Source: NWS Daily Summary

Daily Weather History Graph

Daily Weather History Graph

Search for Another Location

Airport or City:

Trip Planner

Search our weather history database for the weather conditions in past years. The results will help you decide how hot, cold, wet, or windy it might be!

Date:

Astronomy

Sep. 22, 2013 Rise Set
Actual Time 7:31 AM EDT 7:41 PM EDT
Civil Twilight 7:02 AM EDT 8:11 PM EDT
Nautical Twilight 6:27 AM EDT 8:46 PM EDT
Astronomical Twilight 5:50 AM EDT 9:22 PM EDT
Moon 9:17 PM EDT (9/22) 11:04 AM EDT (9/22)
Length of Visible Light 13h 09m
Length of Day
12h 09m
Waning Gibbous, 89% of the Moon is Illuminated
Sep 22
Waning Gibbous
Sep 26
Last Quarter
Oct 4
New
Oct 11
First Quarter
Oct 18
Full

Hourly Weather History & Observations

Time (EDT) Temp. Windchill Dew Point Humidity Pressure Visibility Wind Dir Wind Speed Gust Speed Precip Events Conditions
12:15 AM 40.8 °F 36.9 °F 38.1 °F 90% 29.93 in 10.0 mi NNW 5.8 mph - N/A   Scattered Clouds
12:36 AM 39.9 °F 37.8 °F 37.4 °F 91% 29.94 in 10.0 mi NW 3.5 mph - N/A   Scattered Clouds
12:56 AM 38.3 °F 35.9 °F 36.5 °F 93% 29.94 in 10.0 mi NW 3.5 mph - N/A   Clear
1:16 AM 37.0 °F 33.3 °F 35.8 °F 95% 29.95 in 10.0 mi WNW 4.6 mph - N/A   Scattered Clouds
1:36 AM 37.0 °F 32.4 °F 36.1 °F 97% 29.95 in 10.0 mi WNW 5.8 mph - N/A   Mostly Cloudy
1:56 AM 38.3 °F 33.9 °F 37.0 °F 95% 29.96 in 10.0 mi WNW 5.8 mph - N/A   Mostly Cloudy
2:16 AM 37.4 °F 33.8 °F 36.0 °F 95% 29.97 in 10.0 mi NW 4.6 mph - N/A   Scattered Clouds
2:36 AM 36.3 °F 32.5 °F 35.2 °F 96% 29.97 in 10.0 mi NW 4.6 mph - N/A   Scattered Clouds
2:55 AM 35.8 °F 31.9 °F 34.9 °F 97% 29.97 in 10.0 mi NW 4.6 mph - N/A   Clear
3:16 AM 35.6 °F 31.7 °F 34.9 °F 97% 29.98 in 10.0 mi WNW 4.6 mph - N/A   Clear
3:35 AM 35.8 °F 30.9 °F 34.9 °F 97% 29.98 in 10.0 mi NW 5.8 mph - N/A   Mostly Cloudy
3:56 AM 36.3 °F - 35.2 °F 96% 29.98 in 10.0 mi Calm Calm - N/A   Mostly Cloudy
4:16 AM 38.7 °F 35.2 °F 37.4 °F 95% 29.98 in 10.0 mi NW 4.6 mph - N/A   Overcast
4:35 AM 37.9 °F 35.5 °F 36.5 °F 95% 29.99 in 10.0 mi NW 3.5 mph - N/A   Mostly Cloudy
4:56 AM 37.4 °F 33.8 °F 36.3 °F 96% 29.99 in 10.0 mi NW 4.6 mph - N/A   Overcast
5:16 AM 37.8 °F 34.2 °F 36.5 °F 95% 30.00 in 10.0 mi NW 4.6 mph - N/A   Mostly Cloudy
5:36 AM 37.2 °F 33.6 °F 36.0 °F 95% 30.00 in 10.0 mi WNW 4.6 mph - N/A   Mostly Cloudy
5:56 AM 38.3 °F 34.8 °F 36.9 °F 95% 30.01 in 10.0 mi NW 4.6 mph - N/A   Overcast
6:16 AM 37.6 °F 35.1 °F 36.0 °F 94% 30.01 in 10.0 mi NNW 3.5 mph - N/A   Mostly Cloudy
6:36 AM 39.6 °F 37.4 °F 37.8 °F 93% 30.02 in 10.0 mi NW 3.5 mph - N/A   Overcast
6:56 AM 40.1 °F 38.0 °F 37.4 °F 90% 30.02 in 10.0 mi North 3.5 mph - N/A   Overcast
7:15 AM 41.0 °F - 37.6 °F 88% 30.02 in 10.0 mi Calm Calm - N/A   Overcast
7:36 AM 41.0 °F 39.0 °F 38.5 °F 91% 30.03 in 10.0 mi NW 3.5 mph - N/A   Overcast
7:56 AM 41.4 °F 39.4 °F 38.8 °F 91% 30.03 in 10.0 mi NW 3.5 mph - N/A   Overcast
8:15 AM 41.7 °F 38.8 °F 39.2 °F 91% 30.04 in 10.0 mi NW 4.6 mph - N/A   Overcast
8:36 AM 42.3 °F 39.4 °F 39.7 °F 91% 30.04 in 10.0 mi WNW 4.6 mph - N/A   Overcast
8:56 AM 43.2 °F 40.5 °F 40.3 °F 90% 30.05 in 10.0 mi NW 4.6 mph - N/A   Overcast
9:16 AM 43.9 °F 41.3 °F 40.1 °F 87% 30.05 in 10.0 mi NW 4.6 mph - N/A   Overcast
9:36 AM 45.0 °F 42.6 °F 41.2 °F 87% 30.06 in 10.0 mi NW 4.6 mph - N/A   Overcast
9:56 AM 46.4 °F 43.5 °F 41.2 °F 82% 30.07 in 10.0 mi NW 5.8 mph - N/A   Overcast
10:16 AM 47.3 °F - 41.2 °F 79% 30.07 in 10.0 mi Calm Calm - N/A   Overcast
10:36 AM 48.0 °F - 39.9 °F 74% 30.07 in 10.0 mi North 8.1 mph - N/A   Overcast
10:55 AM 48.0 °F - 39.6 °F 73% 30.08 in 10.0 mi NNW 6.9 mph - N/A   Overcast
11:16 AM 48.9 °F - 38.8 °F 68% 30.08 in 10.0 mi North 6.9 mph - N/A   Overcast
11:35 AM 49.8 °F - 37.0 °F 61% 30.08 in 10.0 mi North 8.1 mph - N/A   Overcast
11:56 AM 49.8 °F - 36.7 °F 61% 30.08 in 10.0 mi North 6.9 mph - N/A   Overcast
12:16 PM 50.5 °F - 36.3 °F 58% 30.08 in 10.0 mi NNW 10.4 mph - N/A   Overcast
12:35 PM 50.9 °F - 36.7 °F 58% 30.08 in 10.0 mi NW 8.1 mph - N/A   Overcast
12:56 PM 50.5 °F - 35.8 °F 57% 30.08 in 10.0 mi North 8.1 mph - N/A   Overcast
1:16 PM 51.1 °F - 36.0 °F 56% 30.08 in 10.0 mi North 6.9 mph - N/A   Overcast
1:36 PM 50.9 °F - 37.2 °F 59% 30.08 in 10.0 mi NNE 6.9 mph - N/A   Overcast
1:56 PM 51.3 °F - 36.9 °F 58% 30.08 in 10.0 mi North 6.9 mph - N/A   Overcast
2:16 PM 51.8 °F - 37.6 °F 58% 30.08 in 10.0 mi NNW 6.9 mph - N/A   Overcast
2:36 PM 51.6 °F - 35.8 °F 55% 30.07 in 10.0 mi North 8.1 mph - N/A   Overcast
2:56 PM 52.2 °F - 37.2 °F 57% 30.07 in 10.0 mi North 8.1 mph - N/A   Overcast
3:15 PM 51.8 °F - 37.4 °F 58% 30.07 in 10.0 mi NNE 9.2 mph - N/A   Overcast
3:36 PM 53.4 °F - 38.5 °F 57% 30.07 in 10.0 mi NNW 8.1 mph - N/A   Overcast
3:56 PM 52.3 °F - 37.4 °F 57% 30.07 in 10.0 mi Calm Calm - N/A   Overcast
4:15 PM 51.6 °F - 38.3 °F 60% 30.07 in 10.0 mi North 8.1 mph - N/A   Overcast
4:36 PM 51.3 °F - 38.1 °F 61% 30.07 in 10.0 mi NW 8.1 mph - N/A   Overcast
4:56 PM 50.9 °F - 38.3 °F 62% 30.07 in 10.0 mi NW 6.9 mph - N/A   Overcast
5:16 PM 50.9 °F - 37.9 °F 61% 30.08 in 10.0 mi NNW 4.6 mph - N/A   Overcast
5:36 PM 50.5 °F - 37.9 °F 62% 30.07 in 10.0 mi NNE 3.5 mph - N/A   Overcast
5:56 PM 50.0 °F - 37.8 °F 63% 30.07 in 10.0 mi NW 3.5 mph - N/A   Overcast
6:16 PM 50.0 °F - 37.8 °F 63% 30.07 in 10.0 mi NNE 5.8 mph - N/A   Overcast
6:36 PM 49.5 °F - 38.1 °F 65% 30.07 in 10.0 mi Calm Calm - N/A   Overcast
6:55 PM 49.1 °F - 39.9 °F 71% 30.07 in 10.0 mi NNW 3.5 mph - N/A   Overcast
7:16 PM 48.4 °F - 40.3 °F 74% 30.07 in 10.0 mi NNW 3.5 mph - N/A   Overcast
7:36 PM 47.8 °F - 40.3 °F 75% 30.07 in 10.0 mi Calm Calm - N/A   Overcast
7:56 PM 47.3 °F - 40.8 °F 78% 30.08 in 10.0 mi Calm Calm - N/A   Overcast
8:16 PM 47.5 °F - 38.7 °F 71% 30.08 in 10.0 mi Calm Calm - N/A   Overcast
8:36 PM 45.5 °F 44.2 °F 41.4 °F 85% 30.09 in 10.0 mi NNW 3.5 mph - N/A   Overcast
8:56 PM 46.2 °F - 41.0 °F 82% 30.09 in 10.0 mi Calm Calm - N/A   Overcast
9:16 PM 46.2 °F - 39.6 °F 78% 30.10 in 10.0 mi Calm Calm - N/A   Overcast
9:35 PM 45.1 °F - 40.6 °F 84% 30.10 in 10.0 mi Calm Calm - N/A   Overcast
9:56 PM 42.8 °F - 40.1 °F 90% 30.10 in 10.0 mi Calm Calm - N/A   Overcast
10:16 PM 39.7 °F - 37.9 °F 93% 30.10 in 10.0 mi Calm Calm - N/A   Scattered Clouds
10:36 PM 39.4 °F - 38.1 °F 95% 30.10 in 10.0 mi Calm Calm - N/A   Mostly Cloudy
10:56 PM 39.4 °F - 38.5 °F 97% 30.11 in 10.0 mi Calm Calm - N/A   Mostly Cloudy
11:16 PM 38.7 °F - 37.0 °F 94% 30.11 in 10.0 mi Calm Calm - N/A   Overcast
11:36 PM 39.9 °F 36.7 °F 38.1 °F 93% 30.11 in 10.0 mi NNE 4.6 mph - N/A   Overcast
11:56 PM 40.1 °F 36.1 °F 38.3 °F 93% 30.11 in 10.0 mi North 5.8 mph - N/A   Overcast